Weather History for St. Augustine, FL

Change the Weather History Date:

Wednesday, January 16, 2013

  Actual Average Record
Temperature  
Mean Temperature 72 °F -  
Max Temperature 80 °F 62 °F 81 °F (1974)
Min Temperature 64 °F 44 °F 32 °F (1983)
Cooling Degree Days 7    
Growing Degree Days 22 (Base 50)    
Moisture  
Dew Point 63 °F    
Average Humidity 78    
Maximum Humidity 96    
Minimum Humidity 47    
Precipitation  
Precipitation 0.00 in - - ()
Sea Level Pressure  
Sea Level Pressure 30.06 in    
Wind  
Wind Speed 6 mph (SSW)    
Max Wind Speed 12 mph    
Max Gust Speed 18 mph    
Visibility 10 miles    
Events      
Averages and records for this station are not official NWS values.
T = Trace of Precipitation, MM = Missing Value Source: NWS Daily Summary

Daily Weather History Graph

Daily Weather History Graph

Search for Another Location

Airport:

Trip Planner

Search our weather history database for the weather conditions in past years. The results will help you decide how hot, cold, wet, or windy it might be!

Date:

Astronomy

Jan. 16, 2013 Rise Set
Actual Time 7:21 AM EST 5:49 PM EST
Civil Twilight 6:55 AM EST 6:14 PM EST
Nautical Twilight 6:26 AM EST 6:44 PM EST
Astronomical Twilight 5:57 AM EST 7:12 PM EST
Moon 10:24 AM EST (1/16) 11:09 PM EST (1/16)
Length of Visible Light 11h 18m
Length of Day
10h 27m
Waxing Crescent, 28% of the Moon is Illuminated
Jan 16
Waxing Crescent
Jan 18
First Quarter
Jan 26
Full
Feb 3
Last Quarter
Feb 10
New

Hourly Weather History & Observations

Time (EST) Temp. Heat Index Dew Point Humidity Pressure Visibility Wind Dir Wind Speed Gust Speed Precip Events Conditions
12:58 AM 66.0 °F - 64.0 °F 93% 30.09 in 10.0 mi WSW 4.6 mph - N/A   Clear
1:44 AM 66.2 °F - 64.4 °F 94% 30.09 in 10.0 mi SW 4.6 mph - N/A   Mostly Cloudy
1:58 AM 66.0 °F - 64.0 °F 93% 30.09 in 10.0 mi SW 3.5 mph - N/A   Overcast
2:10 AM 66.2 °F - 64.4 °F 94% 30.08 in 10.0 mi SW 3.5 mph - N/A   Overcast
2:58 AM 64.9 °F - 63.0 °F 93% 30.08 in 10.0 mi Calm Calm - N/A   Mostly Cloudy
3:58 AM 64.0 °F - 63.0 °F 96% 30.07 in 10.0 mi South 5.8 mph - N/A   Clear
5:58 AM 64.9 °F - 63.0 °F 93% 30.06 in 10.0 mi SSW 3.5 mph - N/A   Overcast
7:58 AM 66.9 °F - 63.0 °F 87% 30.09 in 10.0 mi SSW 6.9 mph - N/A   Scattered Clouds
8:58 AM 69.1 °F - 64.0 °F 84% 30.12 in 10.0 mi SW 6.9 mph - N/A   Overcast
9:58 AM 72.0 °F - 64.9 °F 78% 30.12 in 10.0 mi SW 6.9 mph - N/A   Scattered Clouds
10:58 AM 75.9 °F - 64.0 °F 67% 30.10 in 10.0 mi SSW 9.2 mph - N/A   Scattered Clouds
11:58 AM 77.0 °F - 64.0 °F 64% 30.08 in 10.0 mi SSW 11.5 mph - N/A   Overcast
12:58 PM 77.0 °F - 63.0 °F 62% 30.05 in 10.0 mi SW 9.2 mph - N/A   Overcast
1:58 PM 80.1 °F 80.6 °F 57.9 °F 47% 30.03 in 10.0 mi WSW 11.5 mph 18.4 mph N/A   Unknown
2:58 PM 80.1 °F 80.6 °F 57.9 °F 47% 30.02 in 10.0 mi SW 9.2 mph 17.3 mph N/A   Clear
3:58 PM 80.1 °F 80.9 °F 60.1 °F 50% 30.01 in 10.0 mi SSW 9.2 mph - N/A   Partly Cloudy
4:58 PM 75.9 °F - 63.0 °F 64% 30.02 in 10.0 mi SE 8.1 mph - N/A   Partly Cloudy
5:58 PM 71.1 °F - 62.1 °F 73% 30.03 in 10.0 mi SSE 9.2 mph - N/A   Clear
6:58 PM 70.0 °F - 62.1 °F 76% 30.04 in 10.0 mi South 8.1 mph - N/A   Clear
7:58 PM 70.0 °F - 62.1 °F 76% 30.05 in 10.0 mi South 9.2 mph - N/A   Clear
8:58 PM 69.1 °F - 64.0 °F 84% 30.05 in 10.0 mi South 10.4 mph - N/A   Clear
9:58 PM 66.9 °F - 63.0 °F 87% 30.05 in 10.0 mi Calm Calm - N/A   Clear
10:58 PM 66.0 °F - 63.0 °F 90% 30.04 in 10.0 mi SSW 5.8 mph - N/A   Clear
11:58 PM 64.9 °F - 62.1 °F 90% 30.05 in 10.0 mi SW 4.6 mph - N/A   Clear